Location: Ammerl�gen
(47.2167°N, 9.6000°E)
Time: 13:41:17
(UTC+00:00)

Cosmos 676 Rocket - Pass Details

Date: 07 August 2021
Orbit: 755 x 783 km, 74.0° (Epoch: 26 September)

Event Time Altitude Azimuth Distance (km) Brightness Sun altitude
Exits shadow 23:29:47 30° 94° (E) 1,376 5.2 -26.6°
Drops below altitude 10° 23:34:04 10° 41° (NE) 2,345 7.1 -26.6°
Sets 23:36:42 0° 31° (NNE) 3,275 8.2 -26.6°
